TimeEST,TemperatureF,Dew PointF,Humidity,Sea Level PressureIn,VisibilityMPH,Wind Direction,Wind SpeedMPH,Gust SpeedMPH,PrecipitationIn,Events,Conditions,WindDirDegrees,DateUTC
12:29 AM,64.4,62.6,94,29.80,2.5,SSE,12.7,-,0.03,Rain,Heavy Rain,160,2012-12-29 05:29:00
12:51 AM,66.2,64.4,94,29.78,5.0,SSE,11.5,-,0.17,Rain,Light Rain,160,2012-12-29 05:51:00
12:53 AM,66.0,64.0,93,29.78,5.0,South,15.0,-,0.17,Rain,Light Rain,170,2012-12-29 05:53:00
1:15 AM,64.4,64.4,100,29.78,2.0,SSW,13.8,-,0.05,Rain,Rain,200,2012-12-29 06:15:00
1:32 AM,66.2,64.4,94,29.77,3.0,SSW,15.0,21.9,0.10,Rain,Rain,200,2012-12-29 06:32:00
1:53 AM,66.0,64.9,96,29.77,3.0,SSW,13.8,25.3,0.15,Rain,Rain,200,2012-12-29 06:53:00
2:23 AM,66.2,64.4,94,29.77,6.0,SSW,15.0,21.9,0.03,Rain,Light Rain,210,2012-12-29 07:23:00
2:31 AM,66.2,64.4,94,29.77,7.0,SW,18.4,25.3,0.03,Rain,Light Rain,220,2012-12-29 07:31:00
2:53 AM,66.9,64.9,93,29.77,7.0,SW,18.4,25.3,0.04,Rain,Light Rain,220,2012-12-29 07:53:00
3:53 AM,69.1,64.9,87,29.78,10.0,West,16.1,-,0.00,,Overcast,260,2012-12-29 08:53:00
4:01 AM,69.8,64.4,83,29.79,10.0,West,17.3,24.2,N/A,,Overcast,270,2012-12-29 09:01:00
4:06 AM,69.8,64.4,83,29.79,7.0,WNW,17.3,24.2,N/A,,Overcast,290,2012-12-29 09:06:00
4:21 AM,68.0,62.6,83,29.79,10.0,WNW,13.8,23.0,0.00,,Overcast,300,2012-12-29 09:21:00
4:30 AM,66.2,62.6,88,29.79,10.0,NW,16.1,21.9,0.00,,Overcast,310,2012-12-29 09:30:00
4:53 AM,66.0,62.1,87,29.81,10.0,WNW,15.0,-,0.00,,Overcast,300,2012-12-29 09:53:00
5:53 AM,64.9,61.0,87,29.86,10.0,WNW,15.0,23.0,N/A,,Mostly Cloudy,290,2012-12-29 10:53:00
6:10 AM,64.4,60.8,88,29.87,10.0,WNW,12.7,-,N/A,,Scattered Clouds,300,2012-12-29 11:10:00
6:53 AM,63.0,57.9,84,29.90,10.0,WNW,12.7,-,N/A,,Partly Cloudy,300,2012-12-29 11:53:00
7:34 AM,60.8,55.4,82,29.94,10.0,WNW,12.7,21.9,N/A,,Mostly Cloudy,300,2012-12-29 12:34:00
7:46 AM,59.0,55.4,88,29.95,10.0,WNW,13.8,23.0,N/A,,Mostly Cloudy,300,2012-12-29 12:46:00
7:53 AM,59.0,55.0,87,29.95,10.0,WNW,15.0,-,N/A,,Overcast,300,2012-12-29 12:53:00
8:20 AM,57.2,51.8,82,29.97,10.0,NW,20.7,27.6,N/A,,Mostly Cloudy,320,2012-12-29 13:20:00
8:27 AM,57.2,50.0,77,29.97,10.0,NW,15.0,27.6,N/A,,Scattered Clouds,320,2012-12-29 13:27:00
8:53 AM,55.0,48.9,80,30.00,10.0,NW,13.8,23.0,N/A,,Clear,320,2012-12-29 13:53:00
9:53 AM,55.0,46.0,72,30.03,10.0,NNW,11.5,-,N/A,,Clear,330,2012-12-29 14:53:00
10:53 AM,55.0,44.1,67,30.05,10.0,NNW,13.8,23.0,N/A,,Clear,330,2012-12-29 15:53:00
11:30 AM,57.2,44.6,63,30.06,10.0,NNW,12.7,-,N/A,,Mostly Cloudy,330,2012-12-29 16:30:00
11:50 AM,57.2,44.6,63,30.05,10.0,North,13.8,-,N/A,,Scattered Clouds,350,2012-12-29 16:50:00
11:53 AM,57.0,44.1,62,30.05,10.0,North,11.5,-,N/A,,Partly Cloudy,360,2012-12-29 16:53:00
12:53 PM,57.9,43.0,58,30.04,10.0,NNW,11.5,-,N/A,,Clear,340,2012-12-29 17:53:00
1:53 PM,57.9,42.1,56,30.03,10.0,NW,9.2,-,N/A,,Clear,310,2012-12-29 18:53:00
2:53 PM,59.0,41.0,51,30.03,10.0,NW,15.0,20.7,N/A,,Clear,310,2012-12-29 19:53:00
3:53 PM,57.0,39.0,51,30.06,10.0,NW,13.8,19.6,N/A,,Clear,320,2012-12-29 20:53:00
4:53 PM,53.1,37.9,57,30.10,10.0,NNW,16.1,20.7,N/A,,Clear,330,2012-12-29 21:53:00
5:53 PM,48.9,37.9,66,30.13,10.0,NNW,9.2,-,N/A,,Clear,330,2012-12-29 22:53:00
6:53 PM,46.0,36.0,68,30.17,10.0,NNW,12.7,-,N/A,,Clear,340,2012-12-29 23:53:00
7:53 PM,44.1,36.0,73,30.20,10.0,NNW,8.1,-,N/A,,Clear,330,2012-12-30 00:53:00
8:53 PM,44.1,34.0,68,30.24,10.0,NNW,12.7,-,N/A,,Clear,340,2012-12-30 01:53:00
9:53 PM,42.1,32.0,67,30.25,10.0,NNW,12.7,19.6,N/A,,Clear,340,2012-12-30 02:53:00
10:53 PM,39.9,30.0,68,30.29,10.0,NNW,10.4,-,N/A,,Clear,340,2012-12-30 03:53:00
11:53 PM,37.9,28.9,70,30.30,10.0,NNW,6.9,-,N/A,,Clear,340,2012-12-30 04:53:00